Voltar ao catálogo

STARLINK-6226

AtivoComunicaçõesVLEO
NORAD 56544·PAYLOAD·🇺🇸 United States

Lançado May 14, 2023 de Cape Canaveral Space Force Station

Loading…

Próximas Passagens (próximas 24 horas)

TLE

AtualizadoSource: CelesTrak SupGP

Época: Sep 14, 2026, 14:00 UTC

1 56544C 23065AT  26257.58381944 -.00024200  00000+0 -87696-3 0  2579
2 56544  42.9997 236.4546 0001073 265.6112 154.7250 15.27574492    11

Acompanhe STARLINK-6226 em tempo real com AllMySat

Download on the App Store